User: anonymous   Login
Location: Unspecified
(0.0000°N, 0.0000°E)
Time: 20:19:04
(UTC+00:00)
Language:

USA 119 - Orbit

View from above orbital plane
View from above orbital plane
View from above satellite
View from above satellite

Ground track
Ground track

The orbit is defined by the following mean orbital elements,

1 23893U          26145.38188061 +.00000000 +00000-0 +12487-3 0 00006
2 23893  63.3195 251.7813 0849959  48.8289 318.2950 13.46176845    07
Epoch (UTC): 25 May 2026 09:09:54
Eccentricity: 0.0849959
inclination: 63.3195°
perigee height: 452 km
apogee height: 1721 km
right ascension of ascending node: 251.7813°
argument of perigee: 48.8289°
revolutions per day: 13.46176845
mean anomaly at epoch: 318.2950°

The dashed part of the orbit path shows where the satellite is in the earth's shadow,  

DLR